Showing default

GLOBALSTAR M043, 25874

Orbit data source: Space-Track

GLOBALSTAR M043, 25874 is a payload satellite owned by Globalstar (US) in LEO that was launched on Sun, 25 Jul 1999 UTC via a DELTA 7420-10C launch vehicle from the Air Force Eastern Test Range (AFETR). Payload-class satellites include a variety of spacecraft equipped with specific instruments for various scientific and technological missions. These include communications satellites like Starlink; space stations such as the ISS; scientific satellites like the Hubble; Earth observation satellites from companies like Planet Labs, Umbra, and HawkEye 360; GPS; miniature CubeSats for education and research; and military/defense satellites.

Loading next visibility...
Identifier
25874, 1999-041C
Orbit
LEO
Country
Flag of UnknownUnknown / GLOB
Related business
Manufacturer
SS/Loral
Mission
Non-operational Commercial Communications
Bus & Motor
LS-400, LS-400 AOCS
Mass
450 kg wet, 380 kg dry
Launch date (UTC)
1999-07-25 (26 years ago)
Launch vehicle
DELTA 7420-10C
Launch site
Air Force Eastern Test Range (AFETR)
Object type
Payload
Rocket body
Debris
Shape & HBR
Box + 2 Pan, 6.0 m
Radar Cross Section
5.587 m², Large (>1 m²)

Expand to show TLE details & history
Last TLE update: 8 hours ago

TLE from 8 hours ago
0 GLOBALSTAR M043
1 25874U 99041C   25293.13614723  .00000012  00000-0  23888-2 0  9991
2 25874  51.9369 151.9551 0013466 159.8328 346.8674 11.25696045136944
Epoch: 2025-10-20T03:16Z
TLE epoch observation values (Epoch: 2025-10-20T03:16:03.120Z)
Latitude
25.69874°
Longitude
-127.93117°
Altitude
2,021.584 km
Speed
6.897 km/s
True Right ascension
20h 39m 41s
True Declination
25° 35' 05"
Sunlit
Object was in daylight at epoch
Visualization orbit readout
Latitude
Unknown
Longitude
Unknown
Altitude
Unknown
Speed
Unknown
Apparent Right ascension
Unknown
Apparent Declination
Unknown
Sunlit
N/A
Visualization observer readout
Local Sidereal Time
06:10:15
Azimuth
Unknown
Elevation
Unknown
Doppler factor
Unknown
Orbital elements
Apogee altitude
2,043.401 km
Perigee altitude
2,020.751 km
Semi-major axis
8,410.213 km
Eccentricity
0.00135
Inclination
51.9369°
RAAN
151.9551°
Arg. of periapsis
159.8328°
True anomaly
346.83228°
Mean anomaly
346.8674°
Eccentric anomaly
346.84985°
Mean motion
2.81406 °/min
Orbital period
127.93 mins
BSTAR
0.0023888
Loading maneuver chart data...
Computing Atmospheric mass density...
Loading historical data...
Loading historical data...
Loading historical data...
Loading historical data...
Loading historical data...
Loading historical data...
Loading historical data...
Other satellites on launch #41 in the year 1999 (1999-07-25 UTC)

Documentation

Showing up to 5 results
|